TimeMDT,TemperatureF,Dew PointF,Humidity,Sea Level PressureIn,VisibilityMPH,Wind Direction,Wind SpeedMPH,Gust SpeedMPH,PrecipitationIn,Events,Conditions,WindDirDegrees,DateUTC
12:53 AM,43.0,35.1,74,29.93,10.0,West,8.1,-,N/A,,Partly Cloudy,280,2013-10-03 06:53:00
1:53 AM,43.0,34.0,71,29.94,10.0,WNW,8.1,-,N/A,,Scattered Clouds,300,2013-10-03 07:53:00
2:53 AM,42.1,34.0,73,29.96,10.0,West,9.2,-,N/A,,Mostly Cloudy,280,2013-10-03 08:53:00
3:53 AM,42.1,37.0,82,29.97,7.0,West,10.4,-,0.01,Rain,Light Rain,280,2013-10-03 09:53:00
4:53 AM,41.0,37.0,86,29.98,10.0,NW,8.1,-,0.00,,Mostly Cloudy,310,2013-10-03 10:53:00
5:53 AM,41.0,35.1,79,29.99,10.0,WNW,6.9,-,N/A,,Mostly Cloudy,300,2013-10-03 11:53:00
6:53 AM,39.9,34.0,79,30.00,10.0,NW,6.9,-,N/A,,Overcast,310,2013-10-03 12:53:00
7:53 AM,41.0,34.0,76,30.01,10.0,WNW,11.5,-,N/A,,Overcast,300,2013-10-03 13:53:00
8:53 AM,42.1,35.1,76,30.03,10.0,NW,12.7,-,N/A,,Mostly Cloudy,310,2013-10-03 14:53:00
9:53 AM,43.0,35.1,74,30.03,10.0,WNW,12.7,-,N/A,,Overcast,300,2013-10-03 15:53:00
10:53 AM,44.1,35.1,71,30.04,10.0,NW,19.6,25.3,N/A,,Overcast,320,2013-10-03 16:53:00
11:53 AM,48.0,35.1,61,30.03,10.0,NW,20.7,27.6,N/A,,Overcast,320,2013-10-03 17:53:00
12:53 PM,50.0,34.0,54,30.03,10.0,NW,24.2,36.8,N/A,,Overcast,310,2013-10-03 18:53:00
1:53 PM,52.0,30.9,45,30.03,10.0,NNW,25.3,38.0,N/A,,Mostly Cloudy,330,2013-10-03 19:53:00
2:53 PM,54.0,30.9,41,30.03,10.0,NW,23.0,35.7,N/A,,Overcast,320,2013-10-03 20:53:00
3:53 PM,57.0,30.9,37,30.03,10.0,NW,19.6,31.1,N/A,,Overcast,320,2013-10-03 21:53:00
4:53 PM,55.9,28.9,36,30.06,10.0,North,15.0,26.5,N/A,,Overcast,360,2013-10-03 22:53:00
5:53 PM,55.0,25.0,31,30.08,10.0,NNW,20.7,-,N/A,,Overcast,340,2013-10-03 23:53:00
6:53 PM,54.0,25.0,33,30.10,10.0,NNW,18.4,28.8,N/A,,Clear,340,2013-10-04 00:53:00
7:53 PM,52.0,25.0,35,30.14,10.0,NNW,15.0,-,N/A,,Clear,340,2013-10-04 01:53:00
8:53 PM,50.0,27.0,41,30.18,10.0,NNW,11.5,-,N/A,,Clear,330,2013-10-04 02:53:00
10:53 PM,45.0,33.1,63,30.24,10.0,WNW,12.7,-,N/A,,Clear,290,2013-10-04 04:53:00
11:53 PM,44.1,32.0,63,30.25,10.0,NW,11.5,-,N/A,,Clear,320,2013-10-04 05:53:00